Printer-friendly version

IAU Minor Planet Center

Minor Planet Center

MPEC 2004-F33 : 2004 FY1

The following Minor Planet Electronic Circular may be linked-to from your own Web pages, but must not otherwise be redistributed electronically.


Read MPEC 2004-F32 Read MPEC 2004-F34


M.P.E.C. 2004-F33                                Issued 2004 Mar. 19, 15:49 UT

     The Minor Planet Electronic Circulars contain information on unusual
         minor planets and routine data on comets.  They are published
   on behalf of Commission 20 of the International Astronomical Union by the
          Minor Planet Center, Smithsonian Astrophysical Observatory,
                          Cambridge, MA 02138, U.S.A.

         Supported in part by the Steven and Michele Kirsch Foundation
             Prepared using the Tamkin Foundation Computer Network

                              MPC@CFA.HARVARD.EDU
          URL http://cfa-www.harvard.edu/iau/mpc.html  ISSN 1523-6714

                                   2004 FY1

Observations:
     K04F01Y* C2004 03 17.31717 11 49 25.57 -19 46 44.3          19.6   EF033704
     K04F01Y  C2004 03 17.32854 11 49 40.91 -19 48 11.4          20.1   EF033704
     K04F01Y  C2004 03 17.33985 11 49 56.26 -19 49 36.4          20.0   EF033704
     K04F01Y  C2004 03 17.35111 11 50 11.57 -19 51 02.0          20.0   EF033704
     K04F01Y  C2004 03 17.36240 11 50 27.09 -19 52 27.1          20.3   EF033704
     K04F01Y  C2004 03 18.28026 12 24 14.65 -22 30 37.1          19.0   EF033704
     K04F01Y  C2004 03 18.29143 12 24 48.38 -22 33 11.1          19.4   EF033704
     K04F01Y  C2004 03 18.30303 12 25 23.72 -22 35 50.2          19.3   EF033704
     K04F01Y  C2004 03 18.31480 12 26 00.06 -22 38 32.1          19.6   EF033704
     K04F01Y  C2004 03 18.32637 12 26 36.10 -22 41 11.9          19.4   EF033704
     K04F01Y  C2004 03 19.29836 14 01 53.56 -27 13 15.3          18.0 R EF033649
     K04F01Y  C2004 03 19.29991 14 02 08.33 -27 13 40.5          18.3 R EF033649
     K04F01Y  C2004 03 19.30145 14 02 23.15 -27 14 03.8          18.0 R EF033649
     K04F01Y  C2004 03 19.30313 14 02 39.16 -27 14 30.4          17.9 R EF033649
     K04F01Y  C2004 03 19.30488 14 02 56.12 -27 14 57.7          18.3 R EF033649
     K04F01Y 5C2004 03 19.45477 14 29 32.57 -27 45 45.4          17.0 R EF033673
     K04F01Y 5C2004 03 19.45814 14 30 11.16 -27 46 15.2                 EF033673
     K04F01Y 5C2004 03 19.48071 14 34 33.56 -27 49 16.9          17.0 R EF033673
     K04F01Y 5C2004 03 19.48140 14 34 41.47 -27 49 21.6                 EF033673
     K04F01Y 5C2004 03 19.48662 14 35 43.17 -27 49 58.0                 EF033673
     K04F01Y 5C2004 03 19.50119 14 38 36.94 -27 51 31.1          17.0 R EF033673
     K04F01Y 5C2004 03 19.50522 14 39 25.67 -27 51 53.4                 EF033673

Observer details:
649 Powell Observatory, Louisburg.  Observers R. Fredrick, R. Trentman.
    0.75-m Newtonian + CCD.
673 Table Mountain Observatory, Wrightwood.  Observers J. Young, A. Grigsby.
    0.6-m reflector + CCD.
704 Lincoln Laboratory ETS, New Mexico.  Observers M. Blythe, F. Shelly,
    M. Bezpalko, R. Huber, L. Manguso, D. Torres, R. Kracke, M. McCleary,
    H. Stange, A. Milner.  Measurers J. Stuart, R. Sayer, J. Evans, J. Kommers.
    1.0-m f/2.15 reflector + CCD.

Orbital elements:
2004 FY1
Epoch 2004 July 14.0 TT = JDT 2453200.5                 MPC
M  27.31918              (2000.0)            P               Q
n   0.36851835     Peri.   61.66294     -0.47087106     +0.88220179
a   1.9267704      Node   180.24922     -0.85403225     -0.45602755
e   0.5824983      Incl.    8.94201     -0.22115463     -0.11729826
P   2.67           H   26.3           G   0.15           U   6
Residuals in seconds of arc
040317 704  0.7-  0.6+    040318 704  1.1+  0.4+    040319 673  0.2-  0.0
040317 704  0.4+  0.6-    040318 704  1.6+  0.6+    040319 673 (3.5+  0.5-)
040317 704  0.9+  0.0     040319 649  0.4+  0.3+    040319 673  0.8+  0.2-
040317 704  0.2-  0.3-    040319 649  0.4-  0.5-    040319 673 (1.9+  0.2+)
040317 704  1.1-  0.1+    040319 649  0.3+  0.3+    040319 673  0.5+  0.4-
040318 704  1.3-  0.0     040319 649  1.4-  0.0     040319 673 (2.3+  0.2+)
040318 704  0.6-  0.6-    040319 649  0.2+  0.0
040318 704  0.4-  0.0     040319 673  0.4-  0.1-

Ephemeris:
2004 FY1                 a,e,i = 1.93, 0.58, 9                   q = 0.8059
Date    TT    R. A. (2000) Decl.     Delta      r     Elong.  Phase     V
2004 03 16.0  11 27.43   -17 41.8    0.037    1.030   160.2    19.1    20.3
2004 03 17.0  11 42.48   -19 05.6    0.029    1.022   159.5    19.9    19.7
2004 03 18.0  12 11.03   -21 26.8    0.020    1.014   157.1    22.4    19.0

2004 03 19.0  13 20.52   -25 36.1    0.013    1.006   146.7    32.9    18.3
2004 03 19.2  13 46.33   -26 34.8    0.011    1.005   142.1    37.5    18.2
2004 03 19.4  14 19.11   -27 23.1    0.010    1.003   135.9    43.7    18.1
2004 03 19.6  15 00.12   -27 42.7    0.0090   1.001   128.0    51.6    18.1
2004 03 19.8  15 49.24   -27 06.3    0.0084   1.000   118.2    61.4    18.2
2004 03 20.0  16 43.56   -25 09.7    0.0080   0.998   106.9    72.7    18.5
2004 03 20.2  17 37.54   -21 53.7    0.0081   0.997    95.1    84.5    18.9
2004 03 20.4  18 25.81   -17 51.8    0.0085   0.995    83.9    95.6    19.5
2004 03 20.6  19 05.84   -13 46.9    0.0093   0.994    74.3   105.2    20.1
2004 03 20.8  19 37.74   -10 07.1    0.010    0.992    66.4   113.0    20.8
2004 03 21.0  20 02.85   -07 02.0    0.012    0.991    60.2   119.2    21.5

Kyle E. Smalley              (C) Copyright 2004 MPC           M.P.E.C. 2004-F33

Read MPEC 2004-F32 Read MPEC 2004-F34


Our Web policy. Index to the CBAT/MPC/ICQ pages.


Valid HTML 4.01!